Regional Weather Roundup
Issued by NWS Albany, NY

Home | Current Version | Previous Version | Text Only | Print | Product List | Glossary On
Versions: 1 2 3 4 5 6 7 8 9 10 11 12 13 14 15 16 17 18 19 20 21 22 23 24 25 26 27 28 29 30 31 32 33 34 35 36 37 38 39 40 41 42 43 44 45 46 47 48 49 50
000
ASUS41 KALY 020510
RWRALY

NEW YORK STATE HOURLY WEATHER ROUNDUP
NATIONAL WEATHER SERVICE ALBANY NY
100 AM EDT WED SEP 02 2015

NOTE: "FAIR" INDICATES FEW OR NO CLOUDS BELOW 12,000 FEET WITH NO
SIGNIFICANT WEATHER AND/OR NO OBSTRUCTIONS TO VISIBILITY.

NYZ032-033-038>043-046>054-057>066-NYZ062>081-020600-
EAST


CITY           SKY/WX    TMP DP  RH WIND       PRES   REMARKS
ALBANY         CLEAR     69  64  84 CALM      30.04S
GLENS FALLS    CLEAR     64  61  90 CALM      30.03S
POUGHKEEPSIE   CLEAR     64  61  90 CALM      30.04S
NEWBURGH       CLEAR     68  63  83 CALM      30.07S
MONTGOMERY     CLEAR     64  62  93 CALM      30.06S
WHITE PLAINS   CLEAR     69  65  86 CALM      30.06S
ISLIP          CLEAR     72  69  90 SW3       30.04F
NEW YORK CITY  CLEAR     77  67  71 S3        30.05S
CENTRAL PARK   CLEAR     77  60  55 SW3       30.08S
$$

NYZ005>009-017-018-044>046-055-056-020600-
CENTRAL


CITY           SKY/WX    TMP DP  RH WIND       PRES   REMARKS
FULTON         FOG       64  62  93 CALM      30.05S VSB 1/4
SYRACUSE       CLEAR     67  66  97 CALM      30.04S FOG
ROME           CLEAR     63  62  97 CALM      30.07S
ELMIRA         CLEAR     62  62 100 CALM      30.08S FOG
BINGHAMTON     CLEAR     68  65  90 CALM      30.11S
$$

NYZ026>034-041>043-020600-
NORTH


CITY           SKY/WX    TMP DP  RH WIND       PRES   REMARKS
WATERTOWN      CLEAR     60  59  96 S3        30.03F FOG
FORT DRUM      NOT AVBL
MASSENA        CLEAR     64  63  96 SW6       30.02S FOG
SARANAC LAKE   FOG       56  55  97 CALM      30.07S VSB<1/4
PLATTSBURGH    CLEAR     62  62 100 CALM      30.00S
$$

NYZ001>004-010>016-019>021-020600-
WEST


CITY           SKY/WX    TMP DP  RH WIND       PRES   REMARKS
NIAGARA FALLS  CLEAR     69  67  93 SW7       30.05S FOG
BUFFALO        CLEAR     71  67  87 SW7       30.07R FOG
DUNKIRK        CLEAR     68  65  90 S3        30.08S
JAMESTOWN        N/A     64  63  94 CALM      30.13S VSB 3/4
WELLSVILLE     CLEAR     64  62  93 CALM      30.16S FOG
ROCHESTER      PTCLDY    68  64  87 SW5       30.06R FOG
PENN YAN       CLEAR     68  66  93 SW5       30.08S FOG
$$

             KEY
       WCI = WIND CHILL INDEX
       VSB = VISIBILITY
       HX  = HEAT INDEX
$$


USA.gov is the U.S. government's official web portal to all federal, state and local government web resources and services.